Canadian, TX

7:43 AM CST on December 14, 2019 (GMT -0600)
Hemphill County

Weather History for KHHF - October, 2019

Change the Weather History Date:

Monday, October 21, 2019

  Actual Average (WUND) Record (WUND)
Temperature  
Mean Temperature 50 °F -  
Max Temperature 66 °F - - (-1)
Min Temperature 34 °F - - (-1)
Degree Days  
Heating Degree Days 15    
Moisture  
Dew Point 22 °F    
Average Humidity 33    
Maximum Humidity 72    
Minimum Humidity 15    
Precipitation  
Precipitation 0.00 in - - ()
Sea Level Pressure  
Sea Level Pressure 29.94 in    
Wind  
Wind Speed 8 mph ()    
Max Wind Speed 18 mph    
Max Gust Speed 24 mph    
Visibility 10.0 miles    
Events      
Averages and records for this station are not official NWS values.
T = Trace of Precipitation, MM = Missing Value Source: Averaged Metar Reports

Daily Weather History Graph

Daily Weather History Graph

Search for Another Location

Airport or City:

Astronomy

Oct. 21, 2019 Rise Set
Actual Time 7:53 AM CDT 6:58 PM CDT
Civil Twilight 7:27 AM CDT 7:24 PM CDT
Nautical Twilight 6:57 AM CDT 7:54 PM CDT
Astronomical Twilight 6:27 AM CDT 8:23 PM CDT
Moon 12:17 AM CDT (10/21) 3:06 PM CDT (10/21)
Length of Visible Light 11h 56m
Length of Day
11h 04m
Waning Gibbous, 48% of the Moon is Illuminated
Oct 21
Waning Gibbous
Oct 27
New
Nov 4
First Quarter
Nov 12
Full
Nov 19
Last Quarter

Hourly Weather History & Observations

Time (CDT) Temp. Windchill Dew Point Humidity Pressure Visibility Wind Dir Wind Speed Gust Speed Precip Events Conditions
12:15 AM 50.9 °F - 19.8 °F 29% 29.81 in 10.0 mi NW 8.1 mph - N/A   Clear
12:35 AM 51.1 °F - 19.6 °F 29% 29.82 in 10.0 mi NW 4.6 mph - N/A   Clear
12:55 AM 49.5 °F - 21.0 °F 33% 29.81 in 10.0 mi NW 5.8 mph - N/A   Clear
1:15 AM 48.7 °F - 22.1 °F 35% 29.81 in 10.0 mi Calm Calm - N/A   Clear
1:35 AM 49.1 °F - 22.1 °F 35% 29.81 in 10.0 mi WNW 4.6 mph - N/A   Clear
1:55 AM 47.7 °F - 22.6 °F 37% 29.81 in 10.0 mi NW 6.9 mph - N/A   Clear
2:15 AM 48.2 °F - 23.7 °F 38% 29.81 in 10.0 mi NW 5.8 mph - N/A   Clear
2:35 AM 48.0 °F - 23.4 °F 38% 29.82 in 10.0 mi NW 6.9 mph - N/A   Clear
2:55 AM 49.3 °F - 23.5 °F 36% 29.84 in 10.0 mi NW 11.5 mph - N/A   Clear
3:15 AM 48.2 °F - 22.3 °F 36% 29.84 in 10.0 mi NW 9.2 mph 17.3 mph N/A   Clear
3:35 AM 47.5 °F - 22.5 °F 37% 29.85 in 10.0 mi NW 8.1 mph - N/A   Clear
3:55 AM 45.5 °F - 23.0 °F 41% 29.86 in 10.0 mi Calm Calm - N/A   Clear
4:15 AM 44.6 °F 43.1 °F 23.0 °F 43% 29.86 in 10.0 mi NW 3.5 mph - N/A   Clear
4:35 AM 48.2 °F - 23.0 °F 37% 29.87 in 10.0 mi WNW 10.4 mph - N/A   Clear
4:55 AM 47.8 °F - 23.0 °F 38% 29.87 in 10.0 mi WNW 9.2 mph - N/A   Clear
5:15 AM 47.3 °F - 23.4 °F 39% 29.87 in 10.0 mi WNW 9.2 mph - N/A   Clear
5:35 AM 47.3 °F - 23.7 °F 40% 29.86 in 10.0 mi WNW 12.7 mph - N/A   Clear
5:55 AM 46.0 °F 41.0 °F 23.9 °F 42% 29.87 in 10.0 mi NW 10.4 mph - N/A   Clear
6:15 AM 47.1 °F - 24.8 °F 42% 29.88 in 10.0 mi NW 12.7 mph - N/A   Clear
6:35 AM 48.2 °F - 25.2 °F 41% 29.89 in 10.0 mi WNW 11.5 mph 18.4 mph N/A   Clear
6:55 AM 48.2 °F - 25.3 °F 41% 29.90 in 10.0 mi NW 11.5 mph - N/A   Clear
7:15 AM 48.9 °F - 25.3 °F 40% 29.91 in 10.0 mi NW 12.7 mph 17.3 mph N/A   Clear
7:35 AM 49.1 °F - 25.0 °F 39% 29.91 in 10.0 mi WNW 11.5 mph 20.7 mph N/A   Clear
7:55 AM 47.3 °F - 25.2 °F 42% 29.91 in 10.0 mi West 9.2 mph - N/A   Clear
8:15 AM 46.4 °F 42.9 °F 25.5 °F 44% 29.92 in 10.0 mi West 6.9 mph - N/A   Clear
8:35 AM 47.3 °F - 25.5 °F 43% 29.92 in 10.0 mi West 6.9 mph - N/A   Clear
8:55 AM 48.7 °F - 25.0 °F 40% 29.94 in 10.0 mi WNW 10.4 mph - N/A   Clear
9:15 AM 50.9 °F - 24.6 °F 36% 29.95 in 10.0 mi WNW 12.7 mph - N/A   Clear
9:35 AM 51.8 °F - 24.8 °F 35% 29.95 in 10.0 mi WNW 11.5 mph - N/A   Clear
9:55 AM 53.4 °F - 25.5 °F 34% 29.95 in 10.0 mi WNW 12.7 mph - N/A   Clear
10:15 AM 55.0 °F - 24.6 °F 31% 29.95 in 10.0 mi NW 16.1 mph 20.7 mph N/A   Clear
10:35 AM 56.3 °F - 24.1 °F 29% 29.96 in 10.0 mi NW 16.1 mph 19.6 mph N/A   Clear
10:55 AM 57.4 °F - 23.2 °F 27% 29.96 in 10.0 mi NNW 13.8 mph 23.0 mph N/A   Clear
11:15 AM 58.3 °F - 22.8 °F 25% 29.97 in 10.0 mi NNW 17.3 mph 24.2 mph N/A   Clear
11:35 AM 58.3 °F - 22.6 °F 25% 29.98 in 10.0 mi NNW 10.4 mph 21.9 mph N/A   Clear
11:55 AM 59.9 °F - 22.8 °F 24% 29.97 in 10.0 mi NNW 16.1 mph 24.2 mph N/A   Clear
12:15 PM 60.4 °F - 23.0 °F 24% 29.96 in 10.0 mi NW 18.4 mph 24.2 mph N/A   Clear
12:35 PM 61.5 °F - 22.1 °F 22% 29.96 in 10.0 mi NNW 16.1 mph 21.9 mph N/A   Clear
12:55 PM 62.2 °F - 21.9 °F 21% 29.96 in 10.0 mi NNW 12.7 mph 21.9 mph N/A   Clear
1:15 PM 63.5 °F - 21.6 °F 20% 29.96 in 10.0 mi NW 15.0 mph 21.9 mph N/A   Clear
1:35 PM 63.5 °F - 20.8 °F 20% 29.95 in 10.0 mi WNW 11.5 mph 24.2 mph N/A   Clear
1:55 PM 63.9 °F - 19.9 °F 19% 29.95 in 10.0 mi West 15.0 mph 19.6 mph N/A   Clear
2:15 PM 65.3 °F - 18.5 °F 17% 29.94 in 10.0 mi WNW 12.7 mph 20.7 mph N/A   Clear
2:35 PM 64.4 °F - 18.7 °F 17% 29.94 in 10.0 mi West 12.7 mph 19.6 mph N/A   Clear
2:55 PM 65.3 °F - 19.0 °F 17% 29.93 in 10.0 mi West 13.8 mph 19.6 mph N/A   Clear
3:15 PM 65.5 °F - 18.1 °F 16% 29.93 in 10.0 mi WNW 11.5 mph 21.9 mph N/A   Scattered Clouds
3:35 PM 65.7 °F - 18.3 °F 16% 29.94 in 10.0 mi WNW 16.1 mph 24.2 mph N/A   Scattered Clouds
3:55 PM 65.5 °F - 17.8 °F 16% 29.94 in 10.0 mi WNW 15.0 mph 21.9 mph N/A   Scattered Clouds
4:15 PM 65.1 °F - 17.1 °F 16% 29.94 in 10.0 mi WNW 10.4 mph 24.2 mph N/A   Clear
4:35 PM 66.0 °F - 16.7 °F 15% 29.95 in 10.0 mi WNW 12.7 mph 19.6 mph N/A   Clear
4:55 PM 65.5 °F - 16.2 °F 15% 29.95 in 10.0 mi NW 16.1 mph 21.9 mph N/A   Scattered Clouds
5:15 PM 65.5 °F - 15.6 °F 15% 29.95 in 10.0 mi NNW 13.8 mph 19.6 mph N/A   Scattered Clouds
5:35 PM 64.6 °F - 15.4 °F 15% 29.96 in 10.0 mi NNW 12.7 mph - N/A   Clear
5:55 PM 64.4 °F - 15.6 °F 15% 29.96 in 10.0 mi NW 10.4 mph - N/A   Clear
6:15 PM 63.5 °F - 15.4 °F 16% 29.96 in 10.0 mi NW 6.9 mph - N/A   Clear
6:35 PM 62.1 °F - 15.8 °F 17% 29.97 in 10.0 mi NNW 5.8 mph - N/A   Clear
6:55 PM 59.9 °F - 17.1 °F 19% 29.98 in 10.0 mi NNW 9.2 mph - N/A   Clear
7:15 PM 57.4 °F - 17.4 °F 21% 29.99 in 10.0 mi North 3.5 mph - N/A   Clear
7:35 PM 56.3 °F - 18.0 °F 22% 30.01 in 10.0 mi Calm Calm - N/A   Clear
7:55 PM 54.9 °F - 18.3 °F 24% 30.02 in 10.0 mi Calm Calm - N/A   Clear
8:15 PM 51.6 °F - 20.8 °F 30% 30.03 in 10.0 mi Calm Calm - N/A   Clear
8:35 PM 46.6 °F - 21.9 °F 38% 30.05 in 10.0 mi Calm Calm - N/A   Clear
8:55 PM 45.5 °F - 21.6 °F 39% 30.05 in 10.0 mi Calm Calm - N/A   Clear
9:15 PM 37.8 °F 34.2 °F 23.4 °F 56% 30.07 in 10.0 mi SW 4.6 mph - N/A   Clear
9:35 PM 37.4 °F 33.8 °F 23.4 °F 57% 30.07 in 10.0 mi SSW 4.6 mph - N/A   Clear
9:55 PM 37.2 °F 33.6 °F 23.9 °F 59% 30.09 in 10.0 mi SW 4.6 mph - N/A   Clear
10:15 PM 37.6 °F 35.1 °F 24.3 °F 59% 30.10 in 10.0 mi SSW 3.5 mph - N/A   Clear
10:35 PM 35.1 °F 32.2 °F 24.3 °F 65% 30.11 in 10.0 mi SSW 3.5 mph - N/A   Clear
10:55 PM 37.0 °F 34.5 °F 24.3 °F 60% 30.12 in 10.0 mi SW 3.5 mph - N/A   Clear
11:15 PM 34.7 °F 30.6 °F 25.7 °F 70% 30.13 in 10.0 mi WSW 4.6 mph - N/A   Clear
11:35 PM 34.7 °F 31.8 °F 26.6 °F 72% 30.14 in 10.0 mi SW 3.5 mph - N/A   Clear
11:55 PM 35.4 °F 30.5 °F 25.0 °F 66% 30.15 in 10.0 mi SSW 5.8 mph - N/A   Clear